TITAN 3C TRANSTAGE DEB, 1680

Orbit data source: Space-Track

TITAN 3C TRANSTAGE DEB, 1680 is space debris in LEO originally from a launch on Fri, 15 Oct 1965 UTC launched from the Air Force Eastern Test Range (AFETR). Debris objects in space refer to the collection of defunct objects orbiting the Earth. Examples of debris include non-operational satellites, rocket bodies, and fragments generated from explosions, collisions, or faulty payload assembly.

Loading next visibility...
Identifier
1680, 1965-082AT
Orbit
LEO
Country
Flag of USUS
Related business
Manufacturer
Unknown
Mission
Spacecraft
Bus & Motor
Unknown
Mass
Unknown
Launch date (UTC)
1965-10-15 (61 years ago)
Launch vehicle
Unknown
Launch site
Air Force Eastern Test Range (AFETR)
Object type
Payload
Rocket body
Debris
Shape & HBR
Unknown shape, 1.2 m
Radar Cross Section
Large (>1 m²)

Expand to show TLE details & history
Last TLE update: 20 hours ago

TLE from 20 hours ago
0 TITAN 3C TRANSTAGE DEB
1 01680U 65082AT  26255.40882642  .00000264  00000-0  40940-4 0  9993
2 01680  32.2569   7.2891 0020734 300.9381  58.9230 14.65780189226467
Epoch: 2026-09-12T09:48Z
TLE epoch observation values (Epoch: 2026-09-12T09:48:42.602Z)
Latitude
-0.00001°
Longitude
-131.30667°
Altitude
665.708 km
Speed
7.531 km/s
True Right ascension
00h 29m 09s
True Declination
0° 00' 00"
Sunlit
Object was in full shadow at epoch
Visualization orbit readout
Latitude
Unknown
Longitude
Unknown
Altitude
Unknown
Speed
Unknown
Apparent Right ascension
Unknown
Apparent Declination
Unknown
Sunlit
N/A
Visualization observer readout
Local Sidereal Time
22:13:43
Azimuth
Unknown
Elevation
Unknown
Doppler factor
Unknown
Orbital elements
Apogee altitude
692.784 km
Perigee altitude
663.523 km
Semi-major axis
7,056.291 km
Eccentricity
0.00207
Inclination
32.2569°
RAAN
7.2891°
Arg. of periapsis
300.9381°
True anomaly
59.12677°
Mean anomaly
58.923°
Eccentric anomaly
59.02486°
Mean motion
3.66166 °/min
Orbital period
98.32 mins
BSTAR
0.00004094

Documentation

Showing up to 5 results
|